CW2920 Weather Reports


time (UTC)temp
C
wind
direction
speed
KPH
gust
KPH
rain 1hr
cm
rain 24hr
cm
rain mn
cm
humidity
%
barometer
mb
20260505153010 17 234 4.8 16.1 0.00 0.00 0.00 65 1009.9
20260505151550 16 201 1.6 12.9 0.00 0.00 0.00 69 1009.8
20260505124528 6 359 0.0 0.0 0.00 0.00 0.00 86 1008.4
20260505123026 7 359 0.0 0.0 0.00 0.00 0.00 86 1008.3
20260505121525 7 359 0.0 0.0 0.00 0.00 0.00 86 1008.2
20260505120027 7 359 0.0 0.0 0.00 0.00 0.00 86 1008.1
20260505114523 7 359 0.0 0.0 0.00 0.00 0.00 86 1008.0
20260505113005 7 359 0.0 0.0 0.00 0.00 0.00 85 1007.9
20260505111506 8 359 0.0 0.0 0.00 0.00 0.00 84 1007.7
20260505101534 10 359 0.0 0.0 0.00 0.00 0.00 81 1007.2
20260505100010 10 359 0.0 0.0 0.00 0.00 0.00 81 1007.2
20260505094510 10 359 0.0 0.0 0.00 0.00 0.00 80 1007.1
20260505093056 10 359 0.0 0.0 0.00 0.00 0.00 80 1007.0
20260505091552 10 359 0.0 0.0 0.00 0.00 0.00 80 1007.0
20260505090034 10 359 0.0 0.0 0.00 0.00 0.00 79 1006.9
20260505084535 11 359 0.0 0.0 0.00 0.00 0.00 78 1006.9
20260505083016 11 359 0.0 0.0 0.00 0.00 0.00 79 1007.0
20260505081518 11 359 0.0 0.0 0.00 0.00 0.00 80 1006.8
20260505080058 10 359 0.0 0.0 0.00 0.00 0.00 79 1006.7
20260505074559 10 359 0.0 0.0 0.00 0.00 0.00 78 1006.6
20260505073049 10 359 0.0 0.0 0.00 0.00 0.00 80 1006.5
20260505071545 10 359 0.0 0.0 0.00 0.00 0.00 80 1006.5
20260505070059 10 359 0.0 0.0 0.00 0.00 0.00 79 1006.3
20260505064553 11 359 0.0 0.0 0.00 0.00 0.00 78 1006.1
20260505063044 11 354 0.0 0.0 0.00 0.00 0.00 78 1005.9
20260505061609 11 359 0.0 0.0 0.00 0.00 0.00 77 1005.9
20260505060050 11 359 0.0 0.0 0.00 0.00 0.00 78 1005.7
20260505054548 11 359 0.0 0.0 0.00 0.00 0.00 77 1005.6
20260505053026 12 354 0.0 0.0 0.00 0.00 0.00 74 1005.6
20260505051524 12 354 0.0 0.0 0.00 0.00 0.00 75 1005.6
20260505041555 15 359 0.0 0.0 0.00 0.00 0.00 68 1005.4
20260505040039 15 354 0.0 0.0 0.00 0.00 0.00 65 1005.2
20260505034538 16 350 0.0 0.0 0.00 0.00 0.00 62 1005.0
20260505033018 18 359 0.0 0.0 0.00 0.00 0.00 58 1004.9
20260505031517 19 354 0.0 0.0 0.00 0.00 0.00 54 1004.7
20260505030019 20 359 0.0 0.0 0.00 0.00 0.00 50 1004.7
20260505024517 22 354 0.0 0.0 0.00 0.00 0.00 47 1004.5
20260505023018 24 359 0.0 0.0 0.00 0.00 0.00 42 1004.6
20260505021515 25 354 0.0 0.0 0.00 0.00 0.00 39 1004.6
20260505020014 25 354 0.0 0.0 0.00 0.00 0.00 40 1004.7
20260505014516 26 354 0.0 0.0 0.00 0.00 0.00 36 1004.7
20260505013052 26 350 0.0 0.0 0.00 0.00 0.00 33 1005.0
20260505011550 25 354 0.0 0.0 0.00 0.00 0.00 34 1005.1
20260505010032 25 359 0.0 0.0 0.00 0.00 0.00 35 1005.1
20260505004531 25 349 0.0 0.0 0.00 0.00 0.00 34 1005.3
20260505003012 25 359 0.0 1.6 0.00 0.00 0.00 30 1005.3
20260505001512 25 359 0.0 9.7 0.00 0.00 0.00 31 1005.4
20260505000108 26 359 1.6 16.1 0.00 0.00 0.00 29 1005.4
20260504234612 26 359 0.0 9.7 0.00 0.00 0.00 29 1005.4
20260504233059 26 359 0.0 9.7 0.00 0.00 0.00 28 1005.4
20260504231556 26 321 0.0 1.6 0.00 0.00 0.00 25 1005.5
20260504230055 26 324 0.0 9.7 0.00 0.00 0.00 25 1005.7
20260504224554 26 303 0.0 12.9 0.00 0.00 0.00 24 1005.7
20260504223054 26 322 0.0 17.7 0.00 0.00 0.00 24 1005.9
20260504221549 26 359 4.8 16.1 0.00 0.00 0.00 25 1006.0
20260504220045 25 359 0.0 17.7 0.00 0.00 0.00 33 1006.0
20260504214536 25 12 1.6 16.1 0.00 0.00 0.00 37 1006.3
20260504213039 25 332 3.2 14.5 0.00 0.00 0.00 36 1006.4
20260504211536 25 330 6.4 19.3 0.00 0.00 0.00 37 1006.6
20260504210028 25 349 4.8 17.7 0.00 0.00 0.00 38 1006.6
20260504204536 26 316 0.0 4.8 0.00 0.00 0.00 34 1006.7
20260504203022 25 359 0.0 3.2 0.00 0.00 0.00 35 1006.9
20260504201519 25 359 0.0 6.4 0.00 0.00 0.00 34 1007.0
20260504200006 25 260 0.0 6.4 0.00 0.00 0.00 36 1007.2
20260504194505 24 255 0.0 1.6 0.00 0.00 0.00 37 1007.3
20260504193114 23 258 0.0 3.2 0.00 0.00 0.00 37 1007.4
20260504193002 23 359 0.0 3.2 0.00 0.00 0.00 37 1007.5
20260504191557 23 359 0.0 0.0 0.00 0.00 0.00 39 1007.5
20260504190106 22 359 0.0 6.4 0.00 0.00 0.00 39 1007.6
20260504184552 22 359 0.0 0.0 0.00 0.00 0.00 40 1007.6
20260504183058 22 359 0.0 0.0 0.00 0.00 0.00 41 1007.8
20260504181547 22 359 0.0 0.0 0.00 0.00 0.00 43 1007.8
20260504180028 21 359 0.0 0.0 0.00 0.00 0.00 41 1007.9
20260504174527 21 359 0.0 0.0 0.00 0.00 0.00 42 1007.9
20260504173009 21 359 0.0 1.6 0.00 0.00 0.00 43 1007.8
20260504171508 21 359 0.0 1.6 0.00 0.00 0.00 44 1007.9